^^
Station Historical Data
Daily Summary for January 12, 2018 Units:  English    Metric   Both
« Previous Day
Next Day »
Daily Weekly Monthly Yearly Custom
  High: Low: Average:
Temperature: TemperatureF °F 64.6 °F 74.6 °F
Dew Point: DewpointF °F 43.9 °F 51.4 °F
Humidity: Humidity% 25% 46%
Wind Speed: WindSpeedMPHmph 0.0mph 1.2mph
Wind Gust: WindSpeedGustMPHmph - -
Wind- - South
Pressure: PressureIn in 29.65 in -
Precipitation: 0.30 in    
Historical Graphs
 
 
Tabular Data for January 12, 2018
Time Temperature Dew Point Pressure Wind Wind Speed Wind Gust Humidity Rainfall Rate (Hourly) solar Conditions
TemperatureF °F DewpointF °F PressureIn in Calm     Humidity% HourlyPrecipIn in SolarRadiationWatts/m^2 W/m2 Conditions
00:00 76.5 °F 44.4 °F 29.72 in Calm     32% 0.00 in 0.0 W/m2
00:06 76.3 °F 44.2 °F 29.72 in Calm     32% 0.00 in 0.0 W/m2
00:12 76.3 °F 45.1 °F 29.72 in Calm     33% 0.00 in 0.0 W/m2
00:17 76.1 °F 44.1 °F 29.72 in Calm     32% 0.00 in 0.0 W/m2
00:22 75.9 °F 43.9 °F 29.71 in Calm     32% 0.00 in 0.0 W/m2
00:27 75.9 °F 44.8 °F 29.72 in Calm     33% 0.00 in 0.0 W/m2
00:29 75.9 °F 44.8 °F 29.71 in Calm     33% 0.00 in 0.0 W/m2
00:34 75.9 °F 44.8 °F 29.71 in SE 0.9 mph 1.0 mph 33% 0.00 in 0.0 W/m2
00:42 75.7 °F 44.6 °F 29.71 in Calm     33% 0.00 in 0.0 W/m2
00:47 75.7 °F 44.6 °F 29.71 in Calm   2.0 mph 33% 0.00 in 0.0 W/m2
00:52 75.6 °F 44.4 °F 29.71 in Calm     33% 0.00 in 0.0 W/m2
00:55 75.6 °F 44.4 °F 29.71 in Calm   1.0 mph 33% 0.00 in 0.0 W/m2
01:00 75.6 °F 44.4 °F 29.71 in Calm   1.0 mph 33% 0.00 in 0.0 W/m2
01:08 75.6 °F 44.4 °F 29.71 in Calm   2.0 mph 33% 0.00 in 0.0 W/m2
01:14 75.6 °F 44.4 °F 29.71 in Calm     33% 0.00 in 0.0 W/m2
01:20 75.6 °F 44.4 °F 29.70 in Calm     33% 0.00 in 0.0 W/m2
01:25 75.4 °F 45.1 °F 29.70 in Calm     34% 0.00 in 0.0 W/m2
01:30 75.2 °F 45.0 °F 29.70 in Calm   1.0 mph 34% 0.00 in 0.0 W/m2
01:35 74.8 °F 45.3 °F 29.70 in Calm   1.0 mph 35% 0.00 in 0.0 W/m2
01:44 74.3 °F 45.0 °F 29.70 in Calm   1.0 mph 35% 0.00 in 0.0 W/m2
01:49 73.9 °F 45.3 °F 29.70 in ENE 0.9 mph 2.0 mph 36% 0.00 in 0.0 W/m2
01:54 73.8 °F 45.1 °F 29.70 in Calm     36% 0.00 in 0.0 W/m2
01:59 73.6 °F 45.0 °F 29.70 in Calm   1.0 mph 36% 0.00 in 0.0 W/m2
02:05 73.2 °F 45.3 °F 29.70 in ENE 0.9 mph 1.0 mph 37% 0.00 in 0.0 W/m2
02:10 73.0 °F 44.4 °F 29.70 in Calm   2.0 mph 36% 0.00 in 0.0 W/m2
02:15 73.0 °F 44.4 °F 29.71 in NE 2.0 mph 3.0 mph 36% 0.00 in 0.0 W/m2
02:25 73.0 °F 44.4 °F 29.71 in NE 0.9 mph 4.0 mph 36% 0.00 in 0.0 W/m2
02:33 73.0 °F 44.4 °F 29.71 in Calm   2.0 mph 36% 0.00 in 0.0 W/m2
02:36 72.9 °F 44.4 °F 29.71 in Calm   2.0 mph 36% 0.00 in 0.0 W/m2
02:41 72.9 °F 44.4 °F 29.71 in SE 0.9 mph 2.0 mph 36% 0.00 in 0.0 W/m2
02:47 72.7 °F 44.2 °F 29.71 in Calm   1.0 mph 36% 0.00 in 0.0 W/m2
02:52 72.7 °F 45.0 °F 29.71 in NE 0.9 mph 2.0 mph 37% 0.00 in 0.0 W/m2
02:57 72.5 °F 44.1 °F 29.70 in Calm   1.0 mph 36% 0.00 in 0.0 W/m2
03:02 72.3 °F 44.6 °F 29.70 in Calm   1.0 mph 37% 0.00 in 0.0 W/m2
03:07 72.1 °F 44.4 °F 29.70 in Calm     37% 0.00 in 0.0 W/m2
03:12 72.0 °F 44.2 °F 29.70 in Calm     37% 0.00 in 0.0 W/m2
03:22 71.4 °F 44.4 °F 29.70 in Calm     38% 0.00 in 0.0 W/m2
03:43 70.3 °F 44.2 °F 29.70 in East 0.9 mph 2.0 mph 39% 0.00 in 0.0 W/m2
03:48 70.0 °F 44.6 °F 29.70 in ENE 0.9 mph 2.0 mph 40% 0.00 in 0.0 W/m2
03:53 69.8 °F 44.4 °F 29.70 in Calm   2.0 mph 40% 0.00 in 0.0 W/m2
03:59 69.6 °F 44.2 °F 29.70 in ENE 0.9 mph 3.0 mph 40% 0.00 in 0.0 W/m2
04:04 69.6 °F 44.2 °F 29.70 in Calm   4.0 mph 40% 0.00 in 0.0 W/m2
04:09 69.4 °F 44.1 °F 29.70 in Calm   4.0 mph 40% 0.00 in 0.0 W/m2
04:14 69.4 °F 44.8 °F 29.71 in NE 0.9 mph 4.0 mph 41% 0.00 in 0.0 W/m2
04:25 69.1 °F 44.4 °F 29.70 in Calm   2.0 mph 41% 0.00 in 0.0 W/m2
04:31 68.7 °F 44.8 °F 29.70 in Calm   3.0 mph 42% 0.00 in 0.0 W/m2
04:41 68.4 °F 44.4 °F 29.70 in Calm   1.0 mph 42% 0.00 in 0.0 W/m2
04:46 68.2 °F 44.2 °F 29.70 in Calm     42% 0.00 in 0.0 W/m2
04:51 67.8 °F 44.4 °F 29.70 in Calm     43% 0.00 in 0.0 W/m2
04:56 67.6 °F 44.4 °F 29.70 in Calm   1.0 mph 43% 0.00 in 0.0 W/m2
05:01 67.5 °F 44.2 °F 29.70 in ENE 0.9 mph 1.0 mph 43% 0.00 in 0.0 W/m2
05:06 67.3 °F 44.1 °F 29.70 in ENE 0.9 mph 1.0 mph 43% 0.00 in 0.0 W/m2
05:12 67.1 °F 44.4 °F 29.70 in ESE 0.9 mph 1.0 mph 44% 0.00 in 0.0 W/m2
05:17 66.9 °F 44.2 °F 29.71 in East 0.9 mph 3.0 mph 44% 0.00 in 0.0 W/m2
05:22 66.7 °F 44.8 °F 29.71 in Calm   2.0 mph 45% 0.00 in 0.0 W/m2
05:32 66.6 °F 44.6 °F 29.71 in East 0.9 mph 3.0 mph 45% 0.00 in 0.0 W/m2
05:37 66.4 °F 45.0 °F 29.71 in Calm   1.0 mph 46% 0.00 in 0.0 W/m2
05:42 66.4 °F 45.0 °F 29.71 in ENE 2.0 mph 2.0 mph 46% 0.00 in 0.0 W/m2
05:47 66.2 °F 44.8 °F 29.71 in Calm   2.0 mph 46% 0.00 in 0.0 W/m2
05:52 66.0 °F 44.6 °F 29.72 in Calm     46% 0.00 in 0.0 W/m2
05:57 66.0 °F 44.6 °F 29.72 in Calm   1.0 mph 46% 0.00 in 0.0 W/m2
06:03 66.0 °F 45.1 °F 29.72 in Calm   1.0 mph 47% 0.00 in 0.0 W/m2
06:08 65.8 °F 45.0 °F 29.72 in East 2.0 mph 2.0 mph 47% 0.00 in 0.0 W/m2
06:13 65.7 °F 45.0 °F 29.72 in Calm   2.0 mph 47% 0.00 in 0.0 W/m2
06:18 65.7 °F 45.0 °F 29.72 in East 2.0 mph 5.0 mph 47% 0.00 in 0.0 W/m2
06:23 65.7 °F 45.0 °F 29.73 in ENE 2.9 mph 5.0 mph 47% 0.00 in 5.0 W/m2
06:28 65.7 °F 45.0 °F 29.73 in NE 0.9 mph 4.0 mph 47% 0.00 in 7.0 W/m2
06:33 65.7 °F 45.0 °F 29.73 in ENE 2.0 mph 4.0 mph 47% 0.00 in 11.0 W/m2
06:38 65.7 °F 45.0 °F 29.73 in ENE 2.0 mph 3.0 mph 47% 0.00 in 12.0 W/m2
06:43 65.8 °F 45.0 °F 29.73 in East 2.9 mph 3.0 mph 47% 0.00 in 14.0 W/m2
06:48 65.8 °F 45.7 °F 29.73 in ENE 2.9 mph 6.0 mph 48% 0.00 in 16.0 W/m2
06:54 66.0 °F 45.1 °F 29.73 in Calm   3.0 mph 47% 0.00 in 18.0 W/m2
06:59 66.2 °F 45.9 °F 29.74 in Calm   2.0 mph 48% 0.00 in 19.0 W/m2
07:04 66.4 °F 45.5 °F 29.74 in Calm   3.0 mph 47% 0.00 in 21.0 W/m2
07:09 66.6 °F 46.2 °F 29.74 in Calm   2.0 mph 48% 0.00 in 23.0 W/m2
07:14 66.9 °F 46.6 °F 29.74 in Calm   3.0 mph 48% 0.00 in 25.0 W/m2
07:19 67.5 °F 46.6 °F 29.75 in Calm   4.0 mph 47% 0.00 in 26.0 W/m2
07:24 67.6 °F 46.0 °F 29.75 in Calm   2.0 mph 46% 0.00 in 28.0 W/m2
07:29 68.2 °F 47.1 °F 29.75 in Calm   3.0 mph 47% 0.00 in 28.0 W/m2
07:34 68.5 °F 47.5 °F 29.75 in East 0.9 mph 3.0 mph 47% 0.00 in 30.0 W/m2
07:39 68.9 °F 47.3 °F 29.75 in East 2.0 mph 2.0 mph 46% 0.00 in 32.0 W/m2
07:44 69.3 °F 46.9 °F 29.75 in NNE 0.9 mph 1.0 mph 45% 0.00 in 39.0 W/m2
08:00 71.2 °F 47.7 °F 29.75 in Calm     43% 0.00 in 338.0 W/m2
08:05 72.9 °F 48.4 °F 29.75 in NNW 2.9 mph 5.0 mph 42% 0.00 in 367.0 W/m2
08:10 74.5 °F 47.8 °F 29.75 in NE 0.9 mph 4.0 mph 39% 0.00 in 388.0 W/m2
08:15 75.7 °F 48.4 °F 29.75 in Calm   3.0 mph 38% 0.00 in 410.0 W/m2
08:20 77.0 °F 48.0 °F 29.75 in NNW 2.0 mph 6.0 mph 36% 0.00 in 429.0 W/m2
08:25 77.7 °F 48.6 °F 29.75 in NW 2.9 mph 6.0 mph 36% 0.00 in 448.0 W/m2
08:31 78.6 °F 49.5 °F 29.75 in Calm   4.0 mph 36% 0.00 in 469.0 W/m2
08:36 79.3 °F 49.3 °F 29.75 in Calm   7.0 mph 35% 0.00 in 489.0 W/m2
08:41 80.2 °F 50.2 °F 29.75 in NNE 6.0 mph 9.0 mph 35% 0.00 in 510.0 W/m2
08:47 80.6 °F 50.4 °F 29.75 in NE 4.0 mph 6.0 mph 35% 0.00 in 533.0 W/m2
08:52 81.0 °F 50.7 °F 29.75 in NW 6.9 mph 7.0 mph 35% 0.00 in 550.0 W/m2
08:57 81.0 °F 50.7 °F 29.75 in North 2.9 mph 11.0 mph 35% 0.00 in 568.0 W/m2
09:08 81.3 °F 51.1 °F 29.74 in North 4.0 mph 7.0 mph 35% 0.00 in 608.0 W/m2
09:13 81.7 °F 51.4 °F 29.74 in NNW 4.0 mph 9.0 mph 35% 0.00 in 626.0 W/m2
09:18 81.9 °F 51.4 °F 29.73 in North 2.0 mph 3.0 mph 35% 0.00 in 649.0 W/m2
09:34 82.6 °F 51.4 °F 29.73 in North 0.9 mph 7.0 mph 34% 0.00 in 698.0 W/m2
09:39 82.9 °F 50.9 °F 29.73 in NNW 2.0 mph 4.0 mph 33% 0.00 in 712.0 W/m2
09:44 83.5 °F 51.4 °F 29.73 in NNW 6.0 mph 8.0 mph 33% 0.00 in 731.0 W/m2
09:54 84.2 °F 51.1 °F 29.73 in NNW 2.9 mph 7.0 mph 32% 0.00 in 765.0 W/m2
10:05 84.7 °F 51.6 °F 29.72 in Calm   5.0 mph 32% 0.00 in 791.0 W/m2
10:10 84.7 °F 50.7 °F 29.72 in NNW 2.9 mph 6.0 mph 31% 0.00 in 807.0 W/m2
10:15 84.9 °F 50.9 °F 29.72 in NW 0.9 mph 3.0 mph 31% 0.00 in 823.0 W/m2
10:20 85.1 °F 51.1 °F 29.72 in NW 4.9 mph 7.0 mph 31% 0.00 in 838.0 W/m2
10:25 85.3 °F 51.3 °F 29.72 in North 4.9 mph 10.0 mph 31% 0.00 in 847.0 W/m2
10:30 85.6 °F 51.6 °F 29.72 in NW 4.9 mph 7.0 mph 31% 0.00 in 858.0 W/m2
10:35 86.2 °F 52.9 °F 29.72 in WNW 0.9 mph 3.0 mph 32% 0.00 in 875.0 W/m2
10:40 86.5 °F 51.4 °F 29.72 in WSW 0.9 mph 12.0 mph 30% 0.00 in 886.0 W/m2
10:45 86.5 °F 51.4 °F 29.72 in Calm   7.0 mph 30% 0.00 in 911.0 W/m2
10:56 86.7 °F 52.5 °F 29.71 in NNE 4.0 mph 8.0 mph 31% 0.00 in 937.0 W/m2
11:17 86.7 °F 52.5 °F 29.71 in NNW 4.9 mph 9.0 mph 31% 0.00 in 1078.0 W/m2
11:22 86.5 °F 51.4 °F 29.71 in NE 2.9 mph 8.0 mph 30% 0.00 in 237.0 W/m2
11:32 86.5 °F 52.3 °F 29.71 in Calm   2.0 mph 31% 0.00 in 197.0 W/m2
11:39 86.2 °F 52.0 °F 29.71 in North 4.0 mph 10.0 mph 31% 0.00 in 246.0 W/m2
11:44 86.2 °F 52.0 °F 29.71 in West 2.0 mph 5.0 mph 31% 0.00 in 1206.0 W/m2
11:50 86.4 °F 52.2 °F 29.71 in Calm   5.0 mph 31% 0.00 in 1236.0 W/m2
11:55 86.7 °F 51.6 °F 29.71 in WNW 0.9 mph 4.0 mph 30% 0.00 in 258.0 W/m2
12:00 87.3 °F 52.0 °F 29.70 in West 2.9 mph 7.0 mph 30% 0.00 in 1229.0 W/m2
12:05 88.0 °F 51.8 °F 29.70 in West 0.9 mph 6.0 mph 29% 0.00 in 1188.0 W/m2
12:10 88.2 °F 50.0 °F 29.70 in ENE 0.9 mph 6.0 mph 27% 0.00 in 1188.0 W/m2
12:24 86.9 °F 46.8 °F 29.70 in NE 0.9 mph 6.0 mph 25% 0.00 in 186.0 W/m2
12:29 86.5 °F 47.7 °F 29.69 in NE 2.0 mph 10.0 mph 26% 0.00 in 204.0 W/m2
12:35 86.4 °F 47.5 °F 29.69 in NNE 0.9 mph 2.0 mph 26% 0.00 in 308.0 W/m2
12:44 86.5 °F 46.6 °F 29.69 in NE 2.0 mph 8.0 mph 25% 0.00 in 304.0 W/m2
12:49 86.9 °F 46.8 °F 29.68 in South 0.9 mph 5.0 mph 25% 0.00 in 417.0 W/m2
12:54 87.3 °F 48.2 °F 29.69 in SSE 2.0 mph 11.0 mph 26% 0.00 in 265.0 W/m2
13:00 87.3 °F 48.2 °F 29.68 in SE 0.9 mph 8.0 mph 26% 0.00 in 225.0 W/m2
13:05 86.7 °F 47.7 °F 29.68 in NNE 2.9 mph 5.0 mph 26% 0.00 in 229.0 W/m2
13:10 86.5 °F 46.6 °F 29.68 in ENE 0.9 mph 5.0 mph 25% 0.00 in 207.0 W/m2
13:15 86.5 °F 47.7 °F 29.68 in SSE 0.9 mph 3.0 mph 26% 0.00 in 322.0 W/m2
13:21 86.4 °F 50.4 °F 29.68 in WNW 4.9 mph 8.0 mph 29% 0.00 in 278.0 W/m2
13:26 85.5 °F 50.5 °F 29.68 in WSW 6.9 mph 9.0 mph 30% 0.00 in 373.0 W/m2
13:31 84.6 °F 52.3 °F 29.67 in Calm   10.0 mph 33% 0.00 in 244.0 W/m2
13:36 84.6 °F 52.3 °F 29.67 in WSW 6.9 mph 10.0 mph 33% 0.00 in 1206.0 W/m2
13:41 84.9 °F 52.5 °F 29.67 in WSW 4.0 mph 8.0 mph 33% 0.00 in 1206.0 W/m2
13:46 84.6 °F 51.4 °F 29.66 in SW 6.0 mph 15.0 mph 32% 0.00 in 276.0 W/m2
13:51 83.7 °F 51.4 °F 29.67 in WNW 0.9 mph 10.0 mph 33% 0.00 in 193.0 W/m2
13:56 83.1 °F 51.8 °F 29.67 in NW 2.0 mph 4.0 mph 34% 0.00 in 169.0 W/m2
14:01 82.8 °F 51.4 °F 29.68 in SW 2.0 mph 5.0 mph 34% 0.00 in 149.0 W/m2
14:07 82.2 °F 51.1 °F 29.68 in WNW 0.9 mph 5.0 mph 34% 0.00 in 137.0 W/m2
14:12 81.7 °F 51.4 °F 29.69 in West 0.9 mph 3.0 mph 35% 0.00 in 156.0 W/m2
14:17 81.3 °F 51.8 °F 29.68 in WNW 4.9 mph 10.0 mph 36% 0.00 in 216.0 W/m2
14:22 80.8 °F 52.9 °F 29.68 in NNW 0.9 mph 6.0 mph 38% 0.00 in 258.0 W/m2
14:27 80.4 °F 51.8 °F 29.68 in NNW 6.0 mph 10.0 mph 37% 0.00 in 278.0 W/m2
14:32 80.2 °F 51.6 °F 29.68 in WNW 0.9 mph 3.0 mph 37% 0.00 in 480.0 W/m2
14:37 80.4 °F 51.8 °F 29.68 in NW 2.0 mph 9.0 mph 37% 0.00 in 355.0 W/m2
14:42 80.8 °F 53.6 °F 29.67 in WSW 6.9 mph 7.0 mph 39% 0.00 in 1164.0 W/m2
14:52 81.0 °F 53.6 °F 29.69 in SW 4.0 mph 4.0 mph 39% 0.00 in 79.0 W/m2
14:58 79.7 °F 56.5 °F 29.70 in South 2.9 mph 9.0 mph 45% 0.00 in 53.0 W/m2
15:03 78.3 °F 61.7 °F 29.70 in Calm   3.0 mph 57% 0.04 in 51.0 W/m2
15:08 75.7 °F 62.2 °F 29.70 in Calm   1.0 mph 63% 0.14 in 69.0 W/m2
15:13 73.2 °F 62.4 °F 29.69 in NNW 2.0 mph 3.0 mph 69% 0.15 in 100.0 W/m2
15:18 71.6 °F 63.3 °F 29.69 in Calm   2.0 mph 75% 0.16 in 153.0 W/m2
15:26 70.3 °F 64.2 °F 29.68 in Calm   3.0 mph 81% 0.16 in 283.0 W/m2
15:31 70.2 °F 64.4 °F 29.67 in NNW 2.0 mph 6.0 mph 82% 0.16 in 251.0 W/m2
15:36 70.2 °F 63.0 °F 29.67 in WNW 2.0 mph 7.0 mph 78% 0.16 in 279.0 W/m2
15:42 70.5 °F 63.0 °F 29.67 in NNW 2.0 mph 3.0 mph 77% 0.16 in 809.0 W/m2
15:47 71.6 °F 63.0 °F 29.67 in WSW 4.9 mph 8.0 mph 74% 0.16 in 935.0 W/m2
15:52 72.9 °F 60.8 °F 29.67 in WSW 2.9 mph 7.0 mph 66% 0.16 in 946.0 W/m2
15:57 73.8 °F 61.3 °F 29.67 in West 2.0 mph 6.0 mph 65% 0.16 in 939.0 W/m2
16:04 74.7 °F 58.5 °F 29.67 in West 2.9 mph 9.0 mph 57% 0.06 in 954.0 W/m2
16:09 74.8 °F 58.1 °F 29.67 in West 4.9 mph 5.0 mph 56% 0.01 in 207.0 W/m2
16:14 74.7 °F 56.8 °F 29.68 in SW 2.0 mph 3.0 mph 54% 0.01 in 93.0 W/m2
16:19 74.5 °F 60.1 °F 29.69 in Calm   2.0 mph 61% 0.00 in 58.0 W/m2
16:25 73.8 °F 63.3 °F 29.67 in Calm   1.0 mph 70% 0.12 in 74.0 W/m2
16:31 72.3 °F 62.8 °F 29.66 in Calm   1.0 mph 72% 0.12 in 81.0 W/m2
16:36 71.1 °F 61.9 °F 29.66 in Calm     73% 0.12 in 95.0 W/m2
16:41 70.3 °F 64.6 °F 29.66 in Calm   2.0 mph 82% 0.12 in 262.0 W/m2
16:46 70.3 °F 64.6 °F 29.65 in Calm   1.0 mph 82% 0.12 in 573.0 W/m2
16:51 71.1 °F 64.6 °F 29.65 in Calm   2.0 mph 80% 0.12 in 571.0 W/m2
16:56 71.8 °F 64.2 °F 29.66 in Calm   3.0 mph 77% 0.12 in 503.0 W/m2
17:06 72.0 °F 61.2 °F 29.66 in NNW 0.9 mph 3.0 mph 69% 0.12 in 601.0 W/m2
17:12 72.0 °F 61.7 °F 29.66 in Calm   1.0 mph 70% 0.12 in 146.0 W/m2
17:17 72.0 °F 61.7 °F 29.66 in Calm     70% 0.13 in 97.0 W/m2
17:22 72.0 °F 62.4 °F 29.66 in Calm     72% 0.08 in 185.0 W/m2
17:27 72.0 °F 62.1 °F 29.66 in Calm     71% 0.01 in 471.0 W/m2
17:32 72.0 °F 60.4 °F 29.66 in Calm   4.0 mph 67% 0.01 in 271.0 W/m2
17:37 72.3 °F 60.8 °F 29.66 in Calm   1.0 mph 67% 0.01 in 563.0 W/m2
17:42 72.9 °F 59.9 °F 29.66 in Calm   1.0 mph 64% 0.01 in 367.0 W/m2
17:52 73.0 °F 59.2 °F 29.66 in WSW 0.9 mph 2.0 mph 62% 0.01 in 69.0 W/m2
17:57 72.9 °F 59.5 °F 29.66 in Calm   3.0 mph 63% 0.01 in 54.0 W/m2
18:03 72.9 °F 60.4 °F 29.67 in WSW 0.9 mph 2.0 mph 65% 0.01 in 47.0 W/m2
18:09 73.2 °F 59.4 °F 29.66 in SW 2.9 mph 4.0 mph 62% 0.01 in 107.0 W/m2
18:14 73.9 °F 60.1 °F 29.67 in Calm   3.0 mph 62% 0.00 in 281.0 W/m2
18:20 75.0 °F 58.3 °F 29.67 in Calm   3.0 mph 56% 0.00 in 269.0 W/m2
18:25 75.9 °F 57.6 °F 29.67 in SSW 2.0 mph 3.0 mph 53% 0.00 in 255.0 W/m2
18:30 76.6 °F 57.2 °F 29.67 in Calm   2.0 mph 51% 0.00 in 237.0 W/m2
18:35 77.5 °F 55.8 °F 29.68 in Calm   2.0 mph 47% 0.00 in 234.0 W/m2
18:40 78.1 °F 55.6 °F 29.68 in WSW 2.9 mph 3.0 mph 46% 0.00 in 214.0 W/m2
18:45 78.1 °F 55.0 °F 29.68 in West 4.9 mph 5.0 mph 45% 0.00 in 162.0 W/m2
18:50 77.7 °F 54.1 °F 29.68 in Calm   1.0 mph 44% 0.00 in 90.0 W/m2
18:56 77.7 °F 56.5 °F 29.68 in West 0.9 mph 1.0 mph 48% 0.00 in 46.0 W/m2
19:01 77.7 °F 55.2 °F 29.68 in Calm     46% 0.00 in 40.0 W/m2
19:10 77.4 °F 55.0 °F 29.69 in NNW 2.0 mph 4.0 mph 46% 0.00 in 42.0 W/m2
19:17 77.0 °F 54.7 °F 29.70 in NNW 0.9 mph 3.0 mph 46% 0.00 in 32.0 W/m2
19:22 76.8 °F 54.5 °F 29.71 in Calm   3.0 mph 46% 0.00 in 14.0 W/m2
19:27 76.6 °F 55.4 °F 29.71 in Calm   1.0 mph 48% 0.00 in 7.0 W/m2
19:32 76.5 °F 55.4 °F 29.71 in Calm     48% 0.00 in 5.0 W/m2
19:37 76.1 °F 55.6 °F 29.70 in Calm     49% 0.00 in 5.0 W/m2
19:43 75.7 °F 55.8 °F 29.70 in Calm     50% 0.00 in 0.0 W/m2
19:48 75.4 °F 54.3 °F 29.71 in Calm   2.0 mph 48% 0.00 in 0.0 W/m2
19:53 75.0 °F 54.0 °F 29.72 in Calm     48% 0.00 in 0.0 W/m2
19:58 74.8 °F 55.0 °F 29.73 in Calm     50% 0.00 in 0.0 W/m2
20:03 74.7 °F 55.9 °F 29.73 in Calm     52% 0.00 in 0.0 W/m2
20:08 74.5 °F 56.7 °F 29.73 in West 0.9 mph 1.0 mph 54% 0.00 in 0.0 W/m2
20:15 73.9 °F 56.3 °F 29.73 in Calm   2.0 mph 54% 0.00 in 0.0 W/m2
20:26 73.6 °F 55.9 °F 29.73 in Calm   1.0 mph 54% 0.00 in 0.0 W/m2
20:33 73.4 °F 55.8 °F 29.74 in Calm     54% 0.00 in 0.0 W/m2
20:38 73.0 °F 54.9 °F 29.74 in Calm   1.0 mph 53% 0.00 in 0.0 W/m2
20:43 72.9 °F 55.8 °F 29.74 in Calm     55% 0.00 in 0.0 W/m2
20:48 72.7 °F 56.5 °F 29.74 in Calm     57% 0.00 in 0.0 W/m2
20:53 72.3 °F 56.7 °F 29.74 in Calm     58% 0.00 in 0.0 W/m2
20:58 72.1 °F 56.5 °F 29.73 in Calm     58% 0.00 in 0.0 W/m2
21:04 72.0 °F 56.8 °F 29.73 in Calm   2.0 mph 59% 0.00 in 0.0 W/m2
21:09 71.8 °F 57.2 °F 29.74 in Calm     60% 0.00 in 0.0 W/m2
21:14 71.4 °F 57.2 °F 29.74 in Calm     61% 0.00 in 0.0 W/m2
21:19 71.2 °F 57.0 °F 29.74 in Calm   1.0 mph 61% 0.00 in 0.0 W/m2
21:24 71.1 °F 57.4 °F 29.74 in Calm     62% 0.00 in 0.0 W/m2
21:29 70.9 °F 57.2 °F 29.75 in Calm     62% 0.00 in 0.0 W/m2
21:34 70.3 °F 57.6 °F 29.75 in Calm   1.0 mph 64% 0.00 in 0.0 W/m2
21:39 70.2 °F 57.4 °F 29.76 in Calm     64% 0.00 in 0.0 W/m2
21:44 70.2 °F 59.2 °F 29.76 in SSE 3.0 mph 3.0 mph 68% 0.00 in 0.0 W/m2
21:49 70.0 °F 59.0 °F 29.76 in SE 2.0 mph 4.0 mph 68% 0.00 in 0.0 W/m2
21:55 70.0 °F 59.7 °F 29.76 in Calm   2.0 mph 70% 0.00 in 0.0 W/m2
22:00 70.2 °F 59.2 °F 29.76 in NNE 6.0 mph 6.0 mph 68% 0.00 in 0.0 W/m2
22:05 70.2 °F 56.5 °F 29.76 in NE 0.9 mph 5.0 mph 62% 0.00 in 0.0 W/m2
22:10 70.5 °F 56.5 °F 29.77 in Calm     61% 0.00 in 0.0 W/m2
22:18 70.5 °F 58.6 °F 29.78 in Calm   3.0 mph 66% 0.00 in 0.0 W/m2
22:23 70.5 °F 58.1 °F 29.79 in SE 2.0 mph 4.0 mph 65% 0.00 in 0.0 W/m2
22:28 70.3 °F 57.2 °F 29.80 in South 2.0 mph 6.0 mph 63% 0.00 in 0.0 W/m2
22:38 70.5 °F 58.1 °F 29.80 in East 0.9 mph 2.0 mph 65% 0.00 in 0.0 W/m2
22:44 70.3 °F 58.1 °F 29.80 in WNW 0.9 mph 6.0 mph 65% 0.00 in 0.0 W/m2
22:50 70.0 °F 57.7 °F 29.81 in SE 0.9 mph 6.0 mph 65% 0.00 in 0.0 W/m2
22:55 69.8 °F 57.0 °F 29.82 in East 4.0 mph 6.0 mph 64% 0.00 in 0.0 W/m2
23:04 70.0 °F 53.1 °F 29.82 in ESE 6.0 mph 13.0 mph 55% 0.00 in 0.0 W/m2
23:14 70.2 °F 53.8 °F 29.82 in SSE 6.0 mph 12.0 mph 56% 0.00 in 0.0 W/m2
23:22 68.5 °F 54.5 °F 29.81 in SSW 0.9 mph 5.0 mph 61% 0.02 in 0.0 W/m2
23:32 66.6 °F 56.5 °F 29.80 in NNE 0.9 mph 3.0 mph 70% 0.02 in 0.0 W/m2
23:37 65.8 °F 57.4 °F 29.80 in Calm   3.0 mph 74% 0.02 in 0.0 W/m2
23:42 65.1 °F 56.7 °F 29.80 in Calm   1.0 mph 74% 0.02 in 0.0 W/m2
23:50 64.6 °F 57.2 °F 29.80 in Calm   2.0 mph 77% 0.02 in 0.0 W/m2
Olympia, Windhoek, Namibia
Compliments of Weather Underground - 3.25 mb